Date,TemperatureHighF,TemperatureAvgF,TemperatureLowF,DewpointHighF,DewpointAvgF,DewpointLowF,HumidityHigh,HumidityAvg,HumidityLow,PressureMaxIn,PressureMinIn,WindSpeedMaxMPH,WindSpeedAvgMPH,GustSpeedMaxMPH,PrecipitationSumIn
2013-3-1,42.8,35.3,32.0,29.5,25.8,19.7,82,69,52,29.61,29.44,14,3,14,0.05
2013-3-2,36.7,30.5,25.2,19.9,16.8,12.9,66,57,43,29.62,29.55,14,6,14,0.00
2013-3-3,33.8,26.3,21.7,17.7,11.7,7.9,66,54,45,29.61,29.52,18,7,18,0.01
2013-3-4,34.2,28.2,25.2,17.8,14.7,11.8,66,57,43,29.75,29.34,24,8,24,0.00
2013-3-5,50.2,34.3,28.8,21.1,17.7,14.3,67,52,26,29.89,29.43,14,4,14,0.00
2013-3-6,44.1,35.7,27.9,28.4,21.2,15.1,72,56,41,29.65,29.55,15,3,15,0.00
2013-3-7,40.1,34.5,29.8,26.5,20.6,14.0,83,58,37,30.00,29.62,9,2,9,0.01
2013-3-8,51.3,29.0,0.0,31.9,25.3,15.8,84,63,42,30.14,29.93,8,0,8,0.08
2013-3-9,58.5,17.1,0.0,24.2,21.0,11.2,74,31,16,30.19,30.11,7,0,7,0.08
2013-3-10,60.4,39.5,21.9,30.5,20.9,12.5,83,52,17,30.19,30.02,14,3,14,0.00
2013-3-11,49.3,43.1,35.6,39.6,33.2,27.5,79,68,56,30.07,29.81,18,4,18,0.00
2013-3-12,52.5,47.5,38.1,51.2,43.0,29.0,96,84,70,29.84,29.25,21,5,21,0.58
2013-3-13,52.7,39.2,32.2,29.4,20.9,6.3,77,52,19,29.72,29.39,14,4,14,0.00
2013-3-14,32.5,23.2,0.0,18.6,4.3,-21.3,56,32,22,29.75,29.66,23,7,23,0.00
2013-3-15,38.8,25.7,0.0,28.0,12.3,-1.4,83,40,27,29.79,0.00,19,3,19,0.01
2013-3-16,42.8,30.2,19.8,19.9,8.5,-2.8,64,42,18,29.76,29.59,11,3,11,0.00
2013-3-17,39.6,27.9,18.3,9.5,-0.2,-10.0,53,32,15,30.18,29.44,20,5,20,0.00
2013-3-18,39.7,27.0,13.6,21.9,2.1,-9.9,78,38,15,30.29,29.86,10,2,10,0.00
2013-3-19,39.7,31.5,25.3,32.0,25.5,19.5,85,78,67,29.91,29.52,6,0,6,0.06
2013-3-20,39.9,26.8,17.4,20.3,14.1,8.3,78,61,31,29.65,29.59,11,2,11,0.02
2013-3-21,46.9,28.8,12.4,19.8,5.0,-7.0,74,42,16,29.65,29.48,12,3,12,0.11
2013-3-22,30.0,30.0,30.0,15.8,15.8,15.8,55,55,55,29.64,29.63,9,7,9,0.04
2013-3-23,42.1,35.0,31.3,17.6,14.8,11.5,55,44,30,29.73,29.33,19,8,19,0.00
2013-3-24,54.7,37.7,30.6,19.0,15.9,8.7,55,43,17,29.74,29.28,11,3,11,0.00
2013-3-25,47.3,33.0,0.0,24.4,20.4,17.6,62,45,34,29.61,29.06,8,2,8,0.00
2013-3-26,55.2,30.9,0.0,24.9,17.3,5.8,70,31,15,29.69,0.00,12,1,12,0.00
2013-3-27,57.2,23.5,0.0,25.8,18.6,8.6,59,25,21,29.78,0.00,19,3,19,0.00
2013-3-28,51.8,34.4,0.0,31.9,26.8,20.7,74,45,42,29.94,0.00,12,4,12,0.00
2013-3-29,53.6,43.7,36.9,29.4,26.3,20.6,65,51,29,29.96,29.89,17,6,17,0.00
2013-3-30,60.6,44.6,28.8,29.4,18.3,5.7,75,41,14,29.97,29.89,15,4,15,0.00
2013-3-31,57.0,41.0,0.0,38.3,22.9,13.7,87,47,20,29.96,29.54,18,3,18,0.12